TimeMST,TemperatureF,Dew PointF,Humidity,Sea Level PressureIn,VisibilityMPH,Wind Direction,Wind SpeedMPH,Gust SpeedMPH,PrecipitationIn,Events,Conditions,WindDirDegrees,DateUTC
12:54 AM,46.0,17.1,31,29.99,10.0,WSW,17.3,24.2,N/A,,Clear,240,2012-11-17 07:54:00
1:54 AM,43.0,16.0,34,29.99,10.0,WSW,16.1,-,N/A,,Clear,250,2012-11-17 08:54:00
2:54 AM,45.0,16.0,31,29.98,10.0,West,18.4,-,N/A,,Clear,260,2012-11-17 09:54:00
3:54 AM,43.0,16.0,34,30.00,10.0,NW,9.2,-,N/A,,Clear,310,2012-11-17 10:54:00
4:54 AM,42.1,17.1,37,30.02,10.0,West,16.1,-,N/A,,Clear,280,2012-11-17 11:54:00
5:54 AM,34.0,15.1,46,30.10,10.0,WNW,9.2,-,N/A,,Clear,300,2012-11-17 12:54:00
6:54 AM,35.1,16.0,46,30.12,10.0,WSW,10.4,-,N/A,,Clear,250,2012-11-17 13:54:00
7:54 AM,43.0,18.0,37,30.11,10.0,West,9.2,-,N/A,,Clear,260,2012-11-17 14:54:00
8:54 AM,52.0,19.0,27,30.08,10.0,WSW,6.9,-,N/A,,Clear,250,2012-11-17 15:54:00
9:54 AM,57.9,18.0,21,30.06,10.0,Calm,Calm,-,N/A,,Clear,0,2012-11-17 16:54:00
10:54 AM,61.0,19.0,20,30.04,10.0,ESE,4.6,-,N/A,,Clear,110,2012-11-17 17:54:00
11:54 AM,64.9,18.0,16,29.98,10.0,ESE,8.1,-,N/A,,Clear,110,2012-11-17 18:54:00
12:54 PM,66.0,18.0,16,29.95,10.0,ESE,10.4,-,N/A,,Clear,120,2012-11-17 19:54:00
1:54 PM,66.9,17.1,15,29.93,10.0,East,8.1,-,N/A,,Clear,100,2012-11-17 20:54:00
2:54 PM,66.0,16.0,15,29.91,10.0,East,8.1,-,N/A,,Clear,100,2012-11-17 21:54:00
3:54 PM,64.9,15.1,15,29.92,10.0,SSE,10.4,-,N/A,,Clear,150,2012-11-17 22:54:00
4:54 PM,57.9,17.1,20,29.94,10.0,South,10.4,-,N/A,,Clear,170,2012-11-17 23:54:00
5:54 PM,52.0,16.0,24,29.99,10.0,West,5.8,-,N/A,,Clear,270,2012-11-18 00:54:00
6:54 PM,48.0,17.1,29,30.00,10.0,WSW,10.4,-,N/A,,Clear,250,2012-11-18 01:54:00
7:54 PM,51.1,19.9,29,29.96,10.0,WSW,16.1,-,N/A,,Clear,250,2012-11-18 02:54:00
8:54 PM,48.9,19.9,32,29.94,10.0,WSW,15.0,-,N/A,,Clear,240,2012-11-18 03:54:00
9:54 PM,46.9,21.0,36,29.92,10.0,WSW,18.4,-,N/A,,Clear,250,2012-11-18 04:54:00
10:54 PM,46.0,19.0,34,29.91,10.0,WSW,17.3,-,N/A,,Clear,240,2012-11-18 05:54:00
11:54 PM,44.1,17.1,34,29.89,10.0,West,12.7,-,N/A,,Clear,260,2012-11-18 06:54:00